Flag for Ireland Weather past 2 weeks in Galway, Ireland

Now
57 °F

Passing clouds.


Feels Like: 57 °F
Forecast: 51 / 67 °F
Wind: 5 mph from North

Location: Shannon Airport

Current Time: Sep 2, 2014 at 10:14:26 PM

Latest Report: Sep 2, 2014 at 9:30 PM


Visibility: N/A

Pressure: 30.18 "Hg

Humidity: 67%

Dew point: 46 °F

Location of GalwayLocation

Historic Weather in Galway — Graph

°F

Galway temperature yesterday

Maximum temperature yesterday: 63 °F (at 1:30 PM)
Minimum temperature yesterday: 55 °F (at 6:30 AM)
Average temperature yesterday: 59 °F

Past Weeks' High & Low Weather Summary

 TemperatureHumidityPressure
High72 °F (Aug 25, 2:30 PM)100% (Aug 23, 4:00 AM)30.27 "Hg (Aug 23, 4:00 AM)
Low43 °F (Aug 23, 3:30 AM)40% (Aug 23, 4:00 PM)29.36 "Hg (Aug 25, 5:00 PM)
Average58 °F76%29.92 "Hg
* Reported Aug 18 9:00 PM — Sep 2 9:00 PM, Galway, Weather by CustomWeather, © 2014

Note: Actual official high and low records may vary slightly from our data, if they occured in-between our weather recording intervals... More about our weather records

Advertising

Galway weather history for previous 24 hours

 ConditionsComfort  
Time TempWeatherWind HumidityBarometerVisibility
9:00 PM
Sep 2
59 °FPartly sunny.6 mph63%30.18 "HgN/A
8:30 PM59 °FPartly sunny.6 mph63%30.18 "HgN/A
8:00 PM61 °FPartly sunny.5 mph59%30.18 "HgN/A
7:30 PM61 °FPartly sunny.5 mph55%30.18 "HgN/A
7:00 PM61 °FPartly sunny.3 mph59%30.18 "HgN/A
6:30 PM63 °FPartly sunny.5 mph52%30.18 "HgN/A
6:00 PM63 °FPartly sunny.3 mph49%30.18 "HgN/A
5:00 PM63 °FPartly sunny.5 mph49%30.18 "HgN/A
4:30 PM63 °FPartly sunny.5 mph49%30.18 "HgN/A
4:00 PM63 °FPartly sunny.5 mph49%30.21 "HgN/A
3:30 PM63 °FPartly sunny.3 mph49%30.21 "HgN/A
3:00 PM63 °FPartly sunny.5 mph45%30.21 "HgN/A
2:30 PM63 °FPartly sunny.2 mph45%30.21 "HgN/A
2:00 PM61 °FPartly sunny.3 mph48%30.24 "HgN/A
1:30 PM61 °FPartly sunny.3 mph55%30.24 "HgN/A
1:00 PM61 °FPartly sunny.3 mph52%30.24 "HgN/A
12:30 PM61 °FPartly sunny.5 mph55%30.24 "HgN/A
12:00 PM61 °FPartly sunny.2 mph55%30.24 "HgN/A
11:30 AM59 °FPartly sunny.2 mph68%30.24 "HgN/A
11:00 AM59 °FPartly sunny.2 mph63%30.24 "HgN/A
10:30 AM57 °FPartly sunny.2 mph72%30.24 "HgN/A
10:00 AM57 °FOvercast.3 mph72%30.24 "HgN/A
9:30 AM57 °FOvercast.3 mph72%30.24 "HgN/A
9:00 AM57 °FOvercast.2 mph72%30.24 "HgN/A
8:30 AM57 °FOvercast.2 mph72%30.24 "HgN/A
8:00 AM55 °FOvercast.2 mph72%30.24 "HgN/A
7:30 AM55 °FOvercast.3 mph67%30.24 "HgN/A
7:00 AM55 °FOvercast.1 mph67%30.24 "HgN/A
6:30 AM55 °FOvercast.1 mph72%30.24 "HgN/A
6:00 AM55 °FOvercast.2 mph72%30.24 "HgN/A
5:30 AM55 °FOvercast.1 mph72%30.24 "HgN/A
5:00 AM55 °FOvercast.5 mph72%30.24 "HgN/A
4:30 AM55 °FOvercast.2 mph72%30.24 "HgN/A
4:00 AM55 °FOvercast.3 mph72%30.24 "HgN/A
3:30 AM55 °FOvercast.3 mph72%30.24 "HgN/A
3:00 AM55 °FOvercast.3 mph72%30.24 "HgN/A
2:30 AM57 °FOvercast.2 mph63%30.24 "HgN/A
2:00 AM57 °FOvercast.3 mph67%30.27 "HgN/A
1:30 AM57 °FOvercast.3 mph67%30.24 "HgN/A
1:00 AM57 °FOvercast.1 mph72%30.24 "HgN/A
12:30 AM57 °FOvercast.No wind72%30.24 "HgN/A
12:00 AM57 °FOvercast.No wind72%30.24 "HgN/A
11:30 PM
Sep 1
57 °FOvercast.3 mph72%30.24 "HgN/A
11:00 PM57 °FOvercast.3 mph72%30.24 "HgN/A
10:30 PM57 °FOvercast.5 mph72%30.24 "HgN/A
10:00 PM57 °FPassing clouds.2 mph72%30.24 "HgN/A
Weather by CustomWeather, © 2014

See weather overviewHow to use our weather pages